Dr. Bill's Marine Weather

Coastal Marine Forecast

       Alabama   Florida   Louisiana   Mississippi

Printer Friendly AL  FL  LA  MS

Data Buoys:   Western Gulf of Mexico    Eastern Gulf of Mexico
**********************************************************************
  Alabama
500 PM CDT SAT JUL 04 2015

ALZ051>064-042300-
SOUTHWEST ALABAMA
  
CITY           SKY/WX    TMP DP  RH WIND       PRES   REMARKS
MOBILE         MOSUNNY   86  73  65 SW10      30.07R HX  93           
BROOKLEY FIELD MOSUNNY   89  73  59 VRB7      30.07R HX  97           
EVERGREEN      MOSUNNY   89  74  60 SW6       30.04R HX  98           
**********************************************************************
  Florida
600 PM EDT SAT JUL 04 2015

FLZ001>010-012>015-112-114-115-042300-
PANHANDLE FLORIDA
  
CITY           SKY/WX    TMP DP  RH WIND       PRES   REMARKS
PENSACOLA      MOSUNNY   88  74  63 S17       30.05R HX  96           
PENSACOLA NAS  PTSUNNY   86  75  69 SW10      30.06R HX  95           
MILTON NAS     MOSUNNY   89  74  60 SW16      30.04  HX  98           
CRESTVIEW      MOSUNNY   90  72  55 SW9       30.06R HX  97           
DUKE FIELD     FAIR      90  72  55 SW15      30.04R HX  97           
VALPARAISO     MOSUNNY   88  74  62 S12G20    30.05R HX  96           
MARY ESTHER    SUNNY     87  76  68 SW10      30.05R HX  97           
TRI COUNTY     FAIR      88  73  61 NE8       30.04S HX  95           
PANAMA CITY    FAIR      88  74  63 S12       30.05R HX  96           
TYNDALL AFB    SUNNY     88  77  69 SW8       30.06R HX  99           
APALACHICOLA   MOSUNNY   90  76  63 SW12      30.06S HX 101           

STATION/POSITION SKY/WX   TEMP    WIND        PRES    WAVE   SWELL
                          AIR SEA DIR/SP/G            HT/PER HT/PER
                          (F)     (DEG/KT/KT) (MB)    (FT/S) (FT/S)
30.1N   87.6W              85 84  230/  8/ 10 1017.1R   2/ 4   2/ 4
29.2N   88.2W              86 88  250/  8/ 10 1017.6F   2/ 4   2/ 4
28.8N   86.0W              85 86  210/  6/  6 1018.3S   1/ 9   2/ 9
PANAMA CITY BEAC           85 83  200/  8/ 10 1017.5S
CAPE SAN BLAS    NOT AVBL
TOWER C                    84     210/  6/  7 1018.1S
28.5N   84.5W              86 87  200/  6/  6 1018.2F   2/ 5   2/ 5

**********************************************************************
  Louisiana
500 PM CDT SAT JUL 04 2015

LAZ040-048-061>063-065-066-069-042300-
SOUTHEAST LOUISIANA
  
CITY           SKY/WX    TMP DP  RH WIND       PRES   REMARKS
N.O. AUDUBON     N/A     88  78  71 MISG        N/A  HX 102           
N.O. INTL ARPT CLOUDY    84  71  65 NW8       30.06R                  
N.O. LAKEFRONT CLOUDY    86  74  67 NW16      30.06R                  
N.O. DOWNTOWN* FAIR      88  72  58 NW6       30.06R                  
RESERVE*       FAIR      82  73  74 N3        30.06R                  
SLIDELL        CLOUDY    81  72  74 VRB5      30.05R                  
BATON ROUGE    LGT RAIN  76  72  87 CALM      30.06R                  
BOOTHVILLE     MOSUNNY   88  76  67 SW12      30.05R HX  99           
BELLE CHASSE   CLOUDY    86  73  65 W5        30.04R                  
BOGALUSA*      LGT RAIN  74  69  85 N5        30.10S                  
GALLIANO*      CLOUDY    89  74  62 MISG      30.05R HX  98           
NEW ROADS*     FAIR     N/A N/A N/A CALM      30.05F                  
GONZALES*      FAIR      80  78  92 CALM      30.05S                  
HAMMOND*       CLOUDY    75  70  83 N6        30.10R                  
HOUMA*         MOSUNNY   86  73  66 SW7       30.05R                  
PORT FOURCHON* PTCLDY    88  75  66 SW8G14    30.06R HX  97           

**********************************************************************
  Mississippi
500 PM CDT SAT JUL 04 2015

MSZ080>082-042300-
COASTAL MISSISSIPPI
  
CITY           SKY/WX    TMP DP  RH WIND       PRES   REMARKS
BAY ST LOUIS   MOSUNNY   82  70  65 MISG      30.05R                  
BILOXI         CLOUDY    85  75  71 SW8       30.03S HX  93           
PASCAGOULA     PTSUNNY   85  76  74 SW8       30.04R HX  94           
GULFPORT       CLOUDY    83  73  72 NW8       30.04R                  
About Us | Coastal Marine Forecast | Offshore Marine Forecast
Gulf Coast Tides | Hourly Weather Observations | Weather Radar
Sea Surface Temperatures | Solar/Lunar Data | Hurricane Advisories | Home
     
USA Logo Dr. Bill's Marine Weather
Last date changed: December 9, 2014 4:08 PM
www.gulfmarineweather.com/hourlyweatherobservations.shtml
Contact Us